User: anonymous   Login
Location: North Smoke Tower Site
(30.5430°N, 82.3390°W)
Time: 19:28:41
(UTC-04:00)
Language:

Cosmos 1980 Rocket - Orbit

View from above orbital plane
View from above orbital plane
View from above satellite
View from above satellite

Ground track
Ground track

The orbit data is extracted from the following two-line orbital elements,

1 19650U 88102B   15212.80310392 -.00000113  00000-0 -33234-4 0  9993
2 19650 070.9995 018.3239 0013237 154.9652 205.2116 14.15720502378840
Epoch (UTC): 31 July 2015 19:16:28
Eccentricity: 0.0013237
inclination: 70.9995°
perigee height: 830 km
apogee height: 849 km
right ascension of ascending node: 18.3239°
argument of perigee: 154.9652°
revolutions per day: 14.15720502
mean anomaly at epoch: 205.2116°
orbit number at epoch: 37884

The dashed part of the orbit path shows where the satellite is in the earth's shadow,  

DLR